Location: Betpouey
(42.8833°N, 0.0333°E)
Time: 14:46:43
(UTC+00:00)

Okean-O - Visible Passes

Search period start: 20 April 2021 00:00
Search period end: 30 April 2021 00:00
Orbit: 639 x 640 km, 98.2° (Epoch: 19 April)

Date Brightness Start Highest point End Pass type
(mag) Time Alt. Az. Time Alt. Az. Time Alt. Az.
20 Apr 3.9 19:21:14 10° S 19:25:27 43° W 19:29:41 10° NNW visible
21 Apr 4.9 19:45:14 10° SSW 19:48:53 25° W 19:52:33 10° NW visible
22 Apr 5.5 20:09:57 10° SW 20:12:24 15° W 20:14:52 10° WNW visible
24 Apr 3.8 19:17:56 10° S 19:22:12 47° W 19:26:30 10° NNW visible
25 Apr 4.8 19:41:52 10° SSW 19:45:38 27° W 19:49:25 10° NW visible
26 Apr 5.4 20:06:25 10° SW 20:09:08 16° W 20:11:51 10° NW visible
29 Apr 4.6 19:38:30 10° SSW 19:42:22 30° W 19:46:16 10° NW visible
